User: anonymous   Login
Location: Unspecified
(0.0000°N, 0.0000°E)
Time: 17:21:32
(UTC+01:00)
Language:

Cosmos 1733 Rocket - Orbit

View from above orbital plane
View from above orbital plane
View from above satellite
View from above satellite

Ground track
Ground track

The orbit data is extracted from the following two-line orbital elements,

1 16612U 86018B   15028.58002265  .00000483  00000-0  55257-4 0  1336
2 16612 082.5155 033.1020 0019121 142.9498 356.6933 14.83794954462331
Epoch (UTC): 28 January 2015 13:55:13
Eccentricity: 0.0019121
inclination: 82.5155°
perigee height: 604 km
apogee height: 631 km
right ascension of ascending node: 33.1020°
argument of perigee: 142.9498°
revolutions per day: 14.83794954
mean anomaly at epoch: 356.6933°
orbit number at epoch: 46233

The dashed part of the orbit path shows where the satellite is in the earth's shadow,  

DLR